[[{"header":{"parameterUnit":"m.s-1","parameterCategory":1,"la1":30.2991,"la2":30.254,"lo1":-89.0895,"lo2":-89.0444,"dy":0.0017,"dx":0.0017,"nx":28,"ny":28,"refTime":"2023-08-07T21:00:00:Z","depth":0,"parameterNumber":2,"parameterNumberName":"U-component_of_WINDS"},"data":[0,0,0,0,0,0,0,0,0,0,0,0,0,0,0,0,0,0,0,0,0,0,0,0,0,0,0,0,0,0,0,0,0,0,0,0,0,0,0,0,0,0,0,0,0,0,0,0,0,0,0,0,0,0,0,0,0,0,0.4597,0.4598,0,0.4655,0.4656,0.4657,0.4681,0.4681,0.468,0.468,0.4747,0.4749,0.4751,0,0,0,0,0,0,0,0,0,0,0,0,0,0.4513,0.4515,0.4597,0.4598,0.4598,0.4655,0.4656,0.4657,0.4681,0.4681,0.468,0.468,0.4746,0.4749,0.4751,0,0,0,0,0,0,0,0,0,0,0,0,0,0.4559,0.4515,0.4597,0.4617,0.4619,0.4655,0.4656,0.4657,0.4681,0.4681,0.468,0.468,0.4746,0.4748,0.4751,0.4774,0,0,0.476,0.4761,0,0,0,0,0,0,0,0,0.4556,0.4562,0.4613,0.4616,0.4618,0.466,0.4651,0.4697,0.4681,0.4658,0.468,0.468,0.4719,0.4724,0.4736,0.4777,0.478,0.476,0.4762,0.4763,0.4764,0,0,0,0,0,0,0,0.4553,0.4559,0.462,0.4614,0.4617,0.4626,0.4632,0.466,0.4689,0.466,0.4661,0.4668,0.472,0.4733,0.4737,0.4781,0.476,0.4763,0.4765,0.4766,0.4847,0.4847,0,0,0,0,0,0,0.4545,0.4557,0.4618,0.4622,0.4586,0.4627,0.4634,0.4647,0.4689,0.4695,0.4668,0.4669,0.4728,0.4734,0.474,0.4771,0.4763,0.4766,0.4768,0.4846,0.4847,0.4847,0,0,0,0,0,0,0.4544,0.4551,0.4616,0.459,0.4599,0.4629,0.4643,0.4649,0.4661,0.4695,0.4701,0.4675,0.4728,0.4736,0.4765,0.4773,0.4767,0.477,0.4846,0.4846,0.4847,0.4831,0,0,0,0,0,0,0.4541,0.455,0.4557,0.459,0.46,0.4638,0.4644,0.465,0.4665,0.4667,0.4703,0.4709,0.4728,0.4761,0.4768,0.4777,0.4772,0.4845,0.4846,0.4847,0.4831,0.4831,0.4831,0,0,0,0,0,0.4538,0.4551,0.4557,0.4564,0.4609,0.4638,0.4644,0.4665,0.4665,0.4674,0.4696,0.4708,0.4771,0.4764,0.4772,0.4782,0.4845,0.4846,0.4847,0.4831,0.4831,0.4831,0,0,0,0,0,0,0.452,0.4555,0.4563,0.4586,0.4609,0.4642,0.4653,0.4664,0.4688,0.4689,0.4716,0.4724,0.4752,0.477,0.4761,0.4807,0.4809,0.4812,0.4794,0.4794,0.4794,0.479,0.4775,0,0,0,0,0,0.4518,0.4536,0.4568,0.4586,0.4596,0.4623,0.4636,0.465,0.4676,0.4686,0.471,0.4737,0.4763,0.478,0.4805,0.4834,0.4844,0.4845,0.4845,0.4845,0.4847,0.4866,0.4868,0.485,0.485,0.485,0,0,0.4515,0.4537,0.4548,0.4582,0.4602,0.4623,0.4631,0.4652,0.4669,0.469,0.4719,0.4738,0.477,0.4799,0.4813,0.4815,0.4854,0.4846,0.4845,0.4848,0.4867,0.4869,0.487,0.4851,0.4851,0.4851,0,0,0.4521,0.4539,0.4556,0.4575,0.4604,0.4622,0.4626,0.4658,0.4671,0.47,0.4717,0.4739,0.4782,0.4805,0.4822,0.4839,0.4852,0.4847,0.4847,0.4865,0.4867,0.4868,0.4876,0.4879,0.4849,0.4849,0.4849,0,0.4515,0.4545,0.4564,0.4585,0.4602,0.462,0.4639,0.4658,0.4694,0.4706,0.4707,0.4764,0.4786,0.4822,0.4826,0.4839,0.4847,0.4843,0.4865,0.4866,0.4868,0.4876,0.4879,0.4848,0.4848,0.4848,0.4848,0,0.4537,0.4558,0.4569,0.4602,0.462,0.464,0.4665,0.4681,0.4694,0.4712,0.4744,0.4771,0.4804,0.4814,0.4827,0.4853,0.4853,0.4859,0.4861,0.4869,0.4877,0.488,0.4847,0.4848,0.4848,0.4848,0,0,0.4532,0.4576,0.458,0.4596,0.463,0.4648,0.4671,0.4701,0.4715,0.474,0.4762,0.4799,0.4805,0.4825,0.4841,0.4857,0.4871,0.4862,0.4863,0.4864,0.4905,0.4901,0.4904,0.488,0.488,0.4881,0.4903,0,0.4544,0.4582,0.4601,0.4632,0.4654,0.4672,0.4693,0.4717,0.4736,0.4759,0.4781,0.4807,0.4813,0.4825,0.4841,0.4866,0.488,0.4864,0.4903,0.4904,0.4895,0.4907,0.4903,0.4922,0.4906,0.4906,0.4907,0,0.4562,0.4585,0.4618,0.4651,0.4661,0.4678,0.4709,0.4729,0.4759,0.4772,0.4795,0.4811,0.4839,0.4839,0.4879,0.4868,0.4886,0.49,0.4902,0.4907,0.4906,0.4915,0.4928,0.4932,0.4911,0.4911,0.4911,0,0.4557,0.4597,0.4622,0.4635,0.4674,0.4686,0.4704,0.4733,0.4751,0.4778,0.4791,0.4822,0.4839,0.4865,0.489,0.4887,0.493,0.4931,0.4944,0.4943,0.4952,0.4952,0.497,0.4961,0.4961,0.4961,0.4961,0,0.4568,0.4588,0.4621,0.4636,0.466,0.4684,0.4708,0.4727,0.4753,0.4776,0.4794,0.4816,0.4847,0.4873,0.4894,0.4926,0.4934,0.4947,0.4952,0.4946,0.4944,0.4958,0.4958,0.4962,0.4962,0.4961,0.4961,0,0.4566,0.4589,0.4618,0.4652,0.4662,0.4678,0.4709,0.4727,0.4747,0.4775,0.4783,0.4816,0.4848,0.4875,0.4918,0.4932,0.4966,0.4972,0.4955,0.4958,0.497,0.4969,0.4999,0.5006,0.499,0.4991,0.4991,0,0.4572,0.4588,0.4624,0.4639,0.4656,0.468,0.4698,0.4723,0.4741,0.4778,0.4792,0.4825,0.4852,0.4903,0.4932,0.4966,0.4974,0.4982,0.4979,0.4973,0.4977,0.4976,0.4979,0.4983,0.4983,0.4983,0.4983,0,0.4581,0.4592,0.4616,0.4644,0.4665,0.4689,0.4714,0.4726,0.4756,0.4777,0.4808,0.483,0.4873,0.4907,0.4944,0.4966,0.4981,0.4983,0.4989,0.4982,0.4973,0.498,0.4957,0.4983,0.4983,0.4983,0.4983,0.4983,0.4585,0.46,0.4628,0.4655,0.4676,0.47,0.4719,0.4741,0.4767,0.4803,0.4817,0.485,0.4883,0.4934,0.4956,0.4985,0.4987,0.4994,0.4996,0.4998,0.4997,0.4967,0.4991,0.4992,0.4992,0.4992,0.4992,0,0.4596,0.4615,0.4639,0.4673,0.4695,0.4705,0.4734,0.4753,0.4781,0.4809,0.4836,0.4874,0.4908,0.494,0.4976,0.4993,0.5001,0.5002,0.5002,0.5007,0.4992,0.4985,0.4995,0.4995,0.4995,0.4995,0.4995,0.4995,0.4604,0.4631,0.4646,0.4686,0.4706,0.4737,0.4753,0.4776,0.4799,0.484,0.4867,0.4887,0.4919,0.4957,0.499,0.4999,0.5012,0.5011,0.5023,0.5008,0.5008,0.5007,0.5,0.5014,0.5014,0.5035,0.5036,0.5036]},{"header":{"parameterUnit":"m.s-1","parameterCategory":1,"la1":30.2991,"la2":30.254,"lo1":-89.0895,"lo2":-89.0444,"dy":0.0017,"dx":0.0017,"nx":28,"ny":28,"refTime":"2023-08-07T21:00:00:Z","depth":0,"parameterNumber":3,"parameterNumberName":"V-component_of_WINDS"},"data":[0,0,0,0,0,0,0,0,0,0,0,0,0,0,0,0,0,0,0,0,0,0,0,0,0,0,0,0,0,0,0,0,0,0,0,0,0,0,0,0,0,0,0,0,0,0,0,0,0,0,0,0,0,0,0,0,0,0,3.7424,3.7425,0,3.7594,3.7596,3.7598,3.7562,3.7559,3.7556,3.7553,3.7722,3.773,3.7737,0,0,0,0,0,0,0,0,0,0,0,0,0,3.7065,3.7071,3.7423,3.7425,3.7428,3.7594,3.7596,3.7598,3.7563,3.7559,3.7555,3.7552,3.772,3.7729,3.7738,0,0,0,0,0,0,0,0,0,0,0,0,0,3.7226,3.7074,3.7423,3.743,3.7432,3.7593,3.7596,3.7599,3.7564,3.7559,3.7554,3.755,3.7717,3.7728,3.7739,3.7901,0,0,3.7773,3.7778,0,0,0,0,0,0,0,0,3.7217,3.7239,3.7427,3.743,3.7433,3.7552,3.7531,3.77,3.7565,3.7514,3.7553,3.7548,3.7669,3.7684,3.7726,3.7909,3.7917,3.7774,3.7781,3.7785,3.7788,0,0,0,0,0,0,0,3.7206,3.7232,3.7491,3.743,3.7433,3.7424,3.7442,3.7563,3.7615,3.7518,3.7516,3.7537,3.767,3.7715,3.773,3.7919,3.7773,3.7783,3.779,3.7795,3.8249,3.8255,0,0,0,0,0,0,3.7193,3.7223,3.7485,3.7496,3.7311,3.7434,3.7454,3.7518,3.7614,3.7624,3.754,3.7534,3.7699,3.7717,3.7736,3.7937,3.7785,3.7796,3.7802,3.8244,3.8251,3.8256,0,0,0,0,0,0,3.7185,3.7216,3.7478,3.7359,3.7391,3.7445,3.7518,3.7524,3.757,3.7631,3.764,3.7578,3.7696,3.772,3.7862,3.7943,3.7801,3.7811,3.8238,3.8246,3.8254,3.8339,0,0,0,0,0,0,3.7175,3.7214,3.7277,3.7361,3.7398,3.7603,3.7523,3.7531,3.759,3.7584,3.7669,3.7678,3.7694,3.7846,3.7873,3.7955,3.782,3.8231,3.8241,3.8251,3.8329,3.8349,3.8366,0,0,0,0,0,3.7162,3.7291,3.728,3.7312,3.7478,3.7608,3.7629,3.7646,3.7596,3.7661,3.77,3.7675,3.7928,3.7861,3.7891,3.7978,3.8226,3.8238,3.825,3.8321,3.8345,3.8365,0,0,0,0,0,0,3.7213,3.7302,3.7291,3.7451,3.7523,3.7602,3.7683,3.767,3.7756,3.7746,3.7761,3.7781,3.7927,3.7965,3.7889,3.8143,3.807,3.8089,3.8113,3.8137,3.8155,3.8145,3.7829,0,0,0,0,0,3.7243,3.7343,3.7414,3.7549,3.7586,3.7628,3.7685,3.7693,3.7766,3.7796,3.7846,3.7917,3.8013,3.8076,3.8167,3.8333,3.8353,3.8408,3.8426,3.8441,3.8458,3.8554,3.8581,3.8296,3.8296,3.8296,0,0,3.7306,3.7367,3.7428,3.7561,3.7617,3.7721,3.7654,3.7764,3.7841,3.7812,3.7952,3.7991,3.8071,3.8228,3.8299,3.8264,3.8541,3.8456,3.8467,3.8477,3.8569,3.8596,3.862,3.8305,3.8303,3.8302,0,0,3.7475,3.7529,3.7651,3.7709,3.7796,3.7824,3.7853,3.7935,3.7962,3.8102,3.8084,3.8174,3.8337,3.8398,3.8449,3.8644,3.8626,3.8672,3.877,3.8863,3.8886,3.8906,3.8981,3.9007,3.8689,3.8689,3.8689,0,3.7542,3.7698,3.7714,3.7829,3.7889,3.7869,3.7994,3.8048,3.816,3.8202,3.8161,3.837,3.8422,3.8595,3.8643,3.8683,3.8719,3.8665,3.8881,3.8902,3.8921,3.8992,3.902,3.8695,3.8694,3.8693,3.8693,0,3.7779,3.7888,3.7975,3.8088,3.8157,3.8275,3.8309,3.8377,3.8378,3.841,3.8555,3.8617,3.8724,3.8764,3.8764,3.8938,3.8915,3.8877,3.8806,3.8953,3.9021,3.9048,3.8703,3.8701,3.8699,3.8698,0,0,3.7987,3.8109,3.8141,3.8195,3.829,3.8374,3.8491,3.8598,3.8659,3.8735,3.8837,3.8977,3.8945,3.9003,3.901,3.9091,3.9248,3.9044,3.9046,3.9085,3.945,3.9482,3.9514,3.9235,3.924,3.9244,3.9445,0,3.8169,3.8381,3.84,3.859,3.8693,3.8676,3.8779,3.8849,3.8882,3.8973,3.9007,3.911,3.9056,3.9093,3.9171,3.9213,3.9323,3.9197,3.9332,3.9336,3.9319,3.9548,3.9582,3.9769,3.9471,3.9475,3.9479,0,3.8411,3.8501,3.8702,3.8788,3.8832,3.8925,3.9026,3.9113,3.9192,3.921,3.9278,3.9274,3.9396,3.9316,3.9486,3.94,3.9455,3.9484,3.9491,3.9509,3.9421,3.9578,3.9828,3.9859,3.9519,3.9516,3.9513,0,3.8551,3.872,3.8865,3.8909,3.9011,3.9078,3.9123,3.9197,3.9262,3.9349,3.9391,3.9489,3.9545,3.9621,3.9645,3.9584,3.9816,3.9736,3.9837,3.9837,3.9891,3.9889,4.016,3.9917,3.9916,3.9916,3.9915,0,3.8756,3.8882,3.893,3.9019,3.916,3.9179,3.9317,3.9358,3.9425,3.9522,3.951,3.9601,3.9624,3.9719,3.9737,3.9878,3.9901,3.9921,3.9925,3.9926,3.9924,3.9967,3.9957,3.9923,3.9921,3.992,3.9919,0,3.8938,3.8974,3.9132,3.9217,3.9241,3.9341,3.9413,3.95,3.9531,3.9654,3.9684,3.9733,3.9845,3.9875,4.0007,4.0019,4.0187,4.0176,4.0163,4.0164,4.0266,4.0258,4.0579,4.0624,4.0345,4.0347,4.035,0,3.907,3.9167,3.9264,3.933,3.9379,3.9484,3.9551,3.9573,3.9643,3.9742,3.9817,3.9928,4.0019,4.0198,4.0245,4.0347,4.0342,4.0447,4.0357,4.0356,4.0351,4.0348,4.036,4.0466,4.0469,4.0471,4.0473,0,3.9303,3.9317,3.9415,3.9522,3.9603,3.9686,3.9766,3.982,3.9853,3.9932,4.0048,4.0119,4.0256,4.0368,4.0472,4.0516,4.0503,4.05,4.053,4.0535,4.0526,4.0539,4.0216,4.0494,4.0492,4.0491,4.0489,4.0489,3.9469,3.9557,3.964,3.9751,3.9814,3.989,3.9977,4.0021,4.0119,4.0236,4.0241,4.0368,4.0446,4.0585,4.0636,4.0735,4.0704,4.0745,4.0757,4.0769,4.0781,4.0505,4.0753,4.0752,4.0752,4.0751,4.0751,0,3.9707,3.976,3.9862,3.9977,4.0065,4.0044,4.0132,4.0207,4.032,4.0395,4.0486,4.0621,4.073,4.0785,4.0893,4.0963,4.0959,4.0991,4.0989,4.1001,4.08,4.0767,4.0992,4.0992,4.0992,4.0992,4.0992,4.0992,3.9842,3.9992,4.0016,4.0197,4.0248,4.0377,4.043,4.05,4.0561,4.0714,4.0806,4.0842,4.091,4.1023,4.1122,4.1135,4.1178,4.1215,4.1226,4.1038,4.1014,4.0991,4.096,4.1223,4.1223,4.1419,4.1421,4.1423]}]]